Simultaneous Nadir Overpasses (SNOs) Predictions

Prediction of SNOs between NOAA-19 and TERRA Satellite Orbit:

Table of predicted SNOs for the next 14.0 days since TLE Epoch: 2/6/2021
Index Date (NOAA-19) Time (NOAA-19) Lat,Lon (NOAA-19) SZA (NOAA-19 ) Date (TERRA) Time (TERRA) Lat,Lon (TERRA) SZA (TERRA ) Distance(km) Time Diff (sec)
1 02/07/2021 18:11:43 -80.04, 118.71 83.82 02/07/2021 18:12:56 -80.03, 118.65 83.81 2.15 73
2 02/07/2021 19:02:47 80.03, -73.84 96.18 02/07/2021 19:02:22 80.03, -73.69 96.19 2.87 25
3 02/10/2021 00:35:55 -80.04, 22.76 84.53 02/10/2021 00:36:04 -80.02, 22.84 84.54 2.34 9
4 02/12/2021 06:09:11 80.03, 119.66 94.75 02/12/2021 06:09:45 80.05, 119.64 94.77 2.20 34
5 02/12/2021 07:00:07 -80.02, -72.87 85.27 02/12/2021 06:59:13 -80.02, -72.99 85.29 2.36 54
6 02/14/2021 11:42:21 -80.05,-143.77 86.00 02/14/2021 11:43:28 -80.05,-143.83 85.99 1.15 67
7 02/14/2021 12:33:23 80.02, 23.86 94.00 02/14/2021 12:32:54 80.04, 23.78 94.00 3.04 29
8 02/16/2021 18:06:34 -80.05, 120.28 86.77 02/16/2021 18:06:37 -80.04, 120.32 86.78 1.01 3
9 02/18/2021 23:39:49 80.05,-143.04 92.46 02/18/2021 23:40:18 80.06,-142.97 92.47 1.44 29



Historial Predications of SNOs between NOAA-19 and TERRA
